Regional Weather Roundup
Issued by NWS

Home | Current Version | Previous Version | Text Only | Print | Product List | Glossary Off
Versions: 1 2 3 4 5 6 7 8 9 10 11 12 13 14 15 16 17 18 19 20 21 22 23 24 25 26 27 28 29 30 31 32 33 34 35 36 37 38 39 40 41 42 43 44 45 46 47 48 49 50

000
ASUS43 KIND 241709
RWRIN

WEATHER ROUNDUP FOR INDIANA
NATIONAL WEATHER SERVICE INDIANAPOLIS IN
100 PM EDT FRI APR 24 2015

NOTE: "FAIR" INDICATES FEW OR NO CLOUDS BELOW 12,000 FEET WITH NO
SIGNIFICANT WEATHER AND/OR OBSTRUCTIONS TO VISIBILITY.

* - STATION DOES NOT REPORT WEATHER SUCH AS PRECIPITATION OR FOG.

+ - STATION NOT QUALITY CONTROLLED BY THE NATIONAL WEATHER SERVICE.
    USE DATA WITH CAUTION...ESPECIALLY DEWPOINT AND RELATIVE
    HUMIDITY OBSERVATIONS.

INZ001>003-010>013-019-020-241800-
NORTHWEST INDIANA

CITY           SKY/WX    TMP DP  RH WIND       PRES   REMARKS
GARY /AIRPORT/ PTSUNNY   57  -4   8 W7        30.07F
KNOX *+        SUNNY     55 N/A N/A SW5       30.05F
LA PORTE +     SUNNY     58  19  21 SW8       30.06F
MICHIGAN CITY+ SUNNY     55   7  14 CALM      30.05F
MONTICELLO +   SUNNY     57  24  27 S5        30.06F
RENSSELAER +   SUNNY     59  21  23 S7        30.05F
VALPARAISO     MOSUNNY   57  15  19 NW7       30.06F

$$

LMZ046-743>745-241800-
SOUTHERN LAKE MICHIGAN

STATION/POSITION TIME  TEMP    WIND        PRES    WAVE
                       AIR SEA DIR/SP/G            HT
                 (UTC) (F)     (DEG/KT/KT) (MB)    (FT)
BURNS HARBOR     1700   49      20/  5/  6 1018.6S
MICHIGAN CITY    1700   45     360/  8/  9   N/A
5NW MICH CITY    1700   44 44   10/  6/  8   N/A     0

$$

INZ004-005-014>016-021>024-241800-
NORTH CENTRAL INDIANA

CITY           SKY/WX    TMP DP  RH WIND       PRES   REMARKS
ELKHART        SUNNY     55  12  18 S6        30.07F
GOSHEN         SUNNY     55  25  31 NW6       30.06F
LOGANSPORT +   SUNNY     55  10  16 S5        30.08F
PERU/GRISSOM   SUNNY     57  20  24 W8        30.07F
ROCHESTER +    SUNNY     59  19  21 SW8       30.07F
SOUTH BEND     SUNNY     56  15  20 W6        30.08F
WARSAW +       SUNNY     55  19  24 CALM      30.07F

$$

INZ006>009-017-018-025>027-241800-
NORTHEAST INDIANA

CITY           SKY/WX    TMP DP  RH WIND       PRES   REMARKS
ANGOLA *+      SUNNY     55  21  26 SW6       30.06F
AUBURN +       SUNNY     55  19  24 W6        30.08F
FORT WAYNE     MOSUNNY   56  21  25 SW9       30.09F
HUNTINGTON +   SUNNY     55  19  24 SW7       30.07F

$$

INZ028-029-035-036-043>045-051>053-241800-
WEST CENTRAL INDIANA

CITY           SKY/WX    TMP DP  RH WIND       PRES   REMARKS
CRAWFORDSVL +  PTSUNNY   55   6  14 S5        30.08S
GREENCASTLE +  PTSUNNY   57  18  21 SE6       30.09S
LAFAYETTE      MOSUNNY   58  22  24 W9        30.06F
TERRE HAUTE    CLOUDY    59  27  29 SE9       30.08F

$$

INZ030>032-037>040-046>048-054>057-064-065-241800-
CENTRAL INDIANA

CITY           SKY/WX    TMP DP  RH WIND       PRES   REMARKS
ANDERSON       SUNNY     55   7  14 S6        30.09F
CP ATTERBURY + PTSUNNY   57  23  26 E5        30.11S
COLUMBUS       SUNNY     55  14  19 CALM      30.11F
FISHERS *+     MOSUNNY   55  28  35 S6        30.09F
FRANKFORT +    MOSUNNY   58  24  27 S7        30.09F
GREENWOOD *+   PTSUNNY   57  14  18 S5        30.10F
INDIANAPOLIS   PTSUNNY   57  21  24 SW8       30.08F
-EAGLE CREEK   MOSUNNY   56  18  22 CALM      30.08F
KOKOMO *+      SUNNY     57  21  24 S7        30.08F
MARION +       SUNNY     55  17  22 W8        30.09F
MT COMFORT *+  MOSUNNY   57  -4   8 CALM      30.10R
SHELBYVILLE    MOSUNNY   59  23  25 VRB7      30.09F
ZIONSVILLE +   MOSUNNY   57  19  22 SW5       30.08F

$$

INZ033-034-041-042-049-050-058-059-241800-
EAST CENTRAL INDIANA

CITY           SKY/WX    TMP DP  RH WIND       PRES   REMARKS
MUNCIE         SUNNY     57  21  24 W9        30.08F

$$

INZ060-061-067>069-081>083-085>088-241800-
SOUTHWEST INDIANA

CITY           SKY/WX    TMP DP  RH WIND       PRES   REMARKS
EVANSVILLE     PTSUNNY   59  26  28 S6        30.10S
HUNTINGBURG *+ PTSUNNY   61  28  29 SE5       30.09F
WASHINGTON +   PTSUNNY   59  13  16 E8        30.07F

$$

INZ062-063-066-070>080-084-089>092-241800-
SOUTH CENTRAL AND SOUTHEAST INDIANA

CITY           SKY/WX    TMP DP  RH WIND       PRES   REMARKS
BEDFORD +      PTSUNNY   59  16  18 E5        30.09F
BLOOMINGTON    PTSUNNY   60  21  22 SE8       30.09F
MADISON *+     MOSUNNY   59  14  17 SE7       30.14R
NORTH VERNON + MOSUNNY   59  27  29 W6        30.11F
SEYMOUR +      PTSUNNY   61  30  31 SE5       30.11F

$$




USA.gov is the U.S. government's official web portal to all federal, state and local government web resources and services.